Banff, Alberta

7:11 AM MST on December 11, 2017 (GMT -0700)
Banff

Weather History for CWZG - February, 2014

Change the Weather History Date:

Wednesday, February 5, 2014

  Actual Average Record
Temperature  
Mean Temperature -15 °F -  
Max Temperature 1 °F - - ()
Min Temperature -31 °F - - ()
Degree Days  
Heating Degree Days 80    
Moisture  
Dew Point -26 °F    
Average Humidity 66    
Maximum Humidity 81    
Minimum Humidity 35    
Precipitation  
Precipitation 0.25 in - - ()
Sea Level Pressure  
Sea Level Pressure 30.91 in    
Wind  
Wind Speed 2 mph ()    
Max Wind Speed 5 mph    
Max Gust Speed -    
T = Trace of Precipitation, MM = Missing Value Source: Averaged Metar Reports

Daily Weather History Graph

Daily Weather History Graph

Search for Another Location

Airport or City:

Trip Planner

Search our weather history database for the weather conditions in past years. The results will help you decide how hot, cold, wet, or windy it might be!

Date:

Astronomy

Feb. 05, 2014 Rise Set
Actual Time 8:12 AM MST 5:40 PM MST
Civil Twilight 7:37 AM MST 6:15 PM MST
Nautical Twilight 6:58 AM MST 6:55 PM MST
Astronomical Twilight 6:19 AM MST 7:33 PM MST
Moon 10:42 AM MST (2/5) 12:23 AM MST (2/5)
Length of Visible Light 10h 38m
Length of Day
9h 27m
Waxing Crescent, 40% of the Moon is Illuminated
Feb 5
Waxing Crescent
Feb 6
First Quarter
Feb 14
Full
Feb 22
Last Quarter
Mar 1
New

Hourly Weather History & Observations

Time (MST) Temp. Windchill Dew Point Humidity Pressure Visibility Wind Dir Wind Speed Gust Speed Precip Events Conditions
12:00 AM -16.2 °F -28.8 °F -23.1 °F 71% 30.91 in - NE 4.6 mph - N/A   Unknown
1:00 AM -17.0 °F -27.2 °F -24.3 °F 69% 30.92 in - ENE 3.5 mph - N/A   Unknown
2:00 AM -19.3 °F -32.4 °F -26.0 °F 71% 30.92 in - ENE 4.6 mph - N/A   Unknown
3:00 AM -24.0 °F - -29.9 °F 74% 30.94 in - Calm Calm - N/A   Unknown
4:00 AM -25.8 °F - -30.6 °F 78% 30.96 in - Calm Calm - N/A   Unknown
5:00 AM -24.7 °F - -32.1 °F 68% 30.98 in - Calm Calm - N/A   Unknown
6:00 AM -28.3 °F - -34.1 °F 74% 31.00 in - Calm Calm - N/A   Unknown
7:00 AM -31.4 °F - -37.5 °F 72% 31.01 in - Calm Calm - N/A   Unknown
8:00 AM -27.6 °F - -33.2 °F 75% 31.00 in - SSW 1.2 mph - N/A   Unknown
9:00 AM -27.0 °F -38.7 °F -33.0 °F 73% 31.01 in - SW 3.5 mph - N/A   Unknown
10:00 AM -23.6 °F -34.8 °F -31.0 °F 68% 31.00 in - SSW 3.5 mph - N/A   Unknown
11:00 AM -18.6 °F - -27.4 °F 64% 30.98 in - SSW 2.3 mph - N/A   Unknown
12:00 PM -13.2 °F - -27.0 °F 50% 30.94 in - WSW 2.3 mph - N/A   Unknown
1:00 PM -7.8 °F - -23.4 °F 47% 30.88 in - West 2.3 mph - N/A   Unknown
2:00 PM -2.4 °F - -24.3 °F 35% 30.84 in - North 1.2 mph - N/A   Unknown
3:00 PM 0.3 °F - -21.3 °F 36% 30.81 in - SE 2.3 mph - N/A   Unknown
4:00 PM 1.4 °F -6.2 °F -19.5 °F 37% 30.81 in - East 3.5 mph - N/A   Unknown
5:00 PM -3.6 °F -12.0 °F -17.7 °F 51% 30.82 in - NNW 3.5 mph - N/A   Unknown
6:00 PM -8.3 °F - -16.4 °F 68% 30.83 in - NE 2.3 mph - N/A   Unknown
7:00 PM -10.8 °F - -16.8 °F 75% 30.85 in - NE 2.3 mph - N/A   Unknown
8:00 PM -17.3 °F - -22.2 °F 79% 30.86 in - Calm Calm - N/A   Unknown
9:00 PM -20.4 °F - -24.9 °F 80% 30.85 in - Calm Calm - N/A   Unknown
10:00 PM -18.9 °F - -23.1 °F 81% 30.82 in - Calm Calm - N/A   Unknown
11:00 PM -21.6 °F - -26.3 °F 79% 30.80 in - WSW 1.2 mph - N/A   Unknown